period_start,C,m1,H,J0,J1,J2,J3,J4,J5,JA,JB,JC,JD,JJ,JK,JN,#
2016-04-02 00:00:42,0.15,8.19,0.00,12.33,16.73,21.08,15.25,51.43,1022.45,2072.98,1445.58,1715.99,1936.79,599.99,621.94,50.50,0000 0000 0000 0000 000000
2016-04-02 00:05:44,0.09,8.20,0.00,12.41,16.78,21.15,15.26,51.45,1022.47,2072.98,1445.02,1715.15,1936.02,599.94,621.69,50.55,0000 0000 0000 0000 000000
2016-04-02 00:10:45,0.12,8.21,0.00,12.47,16.82,21.20,15.28,51.50,1022.46,2072.86,1444.14,1714.58,1935.23,599.86,621.42,50.60,0000 0000 0000 0000 000000
2016-04-02 00:15:46,0.08,8.21,0.00,12.49,16.87,21.24,15.39,51.56,1022.43,2072.53,1443.07,1713.94,1934.22,600.10,621.53,50.65,0000 0000 0000 0000 000000
2016-04-02 00:20:48,0.09,8.21,0.00,12.47,16.92,21.25,15.24,51.43,1022.42,2072.09,1442.48,1713.10,1933.58,599.43,620.89,50.70,0000 0000 0000 0000 000000
2016-04-02 00:25:49,0.15,8.22,0.00,12.53,16.97,21.29,15.34,51.66,1022.40,2072.02,1441.46,1712.35,1932.68,600.13,621.54,50.75,0000 0000 0000 0000 000000
2016-04-02 00:30:50,0.12,8.23,0.00,12.61,17.01,21.31,15.26,51.55,1022.33,2072.00,1440.42,1711.72,1931.85,599.84,620.99,50.80,0000 0000 0000 0000 000000
2016-04-02 00:35:51,0.07,8.23,0.00,12.67,17.05,21.38,15.21,51.57,1022.30,2072.00,1439.87,1710.98,1931.03,600.01,621.06,50.85,0000 0000 0000 0000 000000
2016-04-02 00:40:52,0.16,8.24,0.00,12.64,17.10,21.41,15.25,51.59,1022.36,2071.95,1438.91,1710.13,1930.18,599.89,621.23,50.90,0000 0000 0000 0000 000000
2016-04-02 00:45:54,0.11,8.25,0.00,12.67,17.15,21.41,15.37,51.67,1022.26,2071.72,1437.95,1709.49,1929.28,600.22,621.28,50.95,0000 0000 0000 0000 000000
2016-04-02 00:50:55,0.05,8.25,0.00,12.77,17.20,21.48,15.25,51.65,1022.08,2071.25,1437.07,1708.81,1928.46,599.99,620.63,51.00,0000 0000 0000 0000 000000
2016-04-02 00:55:56,0.10,8.26,0.00,12.84,17.25,21.50,15.21,51.58,1022.05,2071.05,1436.42,1708.05,1927.70,599.86,620.40,51.05,0000 0000 0000 0000 000000
2016-04-02 01:00:58,0.15,8.26,0.00,12.84,17.30,21.51,15.22,51.59,1022.00,2071.00,1435.34,1707.18,1926.80,599.86,620.39,51.10,0000 0000 0000 0000 000000
2016-04-02 01:05:59,0.14,8.27,0.00,12.87,17.35,21.59,15.31,51.60,1022.01,2071.00,1434.41,1706.50,1925.93,600.03,620.44,51.15,0000 0000 0000 0000 000000
2016-04-02 01:11:00,0.12,8.28,0.00,12.98,17.40,21.58,15.26,51.69,1021.99,2070.94,1433.49,1705.80,1925.06,599.81,619.99,51.20,0000 0000 0000 0000 000000
2016-04-02 01:16:02,0.06,8.28,0.00,13.06,17.45,21.66,15.23,51.75,1021.99,2070.60,1432.57,1705.04,1924.16,599.83,619.78,51.25,0000 0000 0000 0000 000000
2016-04-02 01:21:03,0.10,8.29,0.00,13.10,17.50,21.73,15.17,51.52,1021.99,2070.15,1431.72,1704.26,1923.31,599.85,619.86,51.30,0000 0000 0000 0000 000000
2016-04-02 01:26:04,0.10,8.29,0.00,13.10,17.56,21.76,15.25,51.73,1021.99,2070.02,1430.94,1703.64,1922.53,600.08,620.01,51.35,0000 0000 0000 0000 000000
2016-04-02 01:31:05,0.12,8.30,0.00,13.18,17.60,21.82,15.30,51.70,1021.99,2070.00,1429.98,1702.90,1921.68,599.89,619.56,51.41,0000 0000 0000 0000 000000
2016-04-02 01:36:07,0.13,8.31,0.00,13.28,17.65,21.88,15.21,51.68,1021.99,2069.98,1429.06,1702.08,1920.88,600.01,619.41,51.46,0000 0000 0000 0000 000000
2016-04-02 01:41:08,0.14,8.31,0.00,13.32,17.69,21.96,15.25,51.81,1021.99,2069.90,1428.19,1701.38,1920.04,600.22,619.69,51.51,0000 0000 0000 0000 000000
2016-04-02 01:46:09,0.05,8.32,0.00,13.32,17.73,22.03,15.30,51.80,1021.99,2069.48,1427.42,1700.80,1919.29,600.01,619.45,51.56,0000 0000 0000 0000 000000
2016-04-02 01:51:11,0.09,8.32,0.00,13.34,17.77,22.11,15.26,51.81,1021.99,2069.06,1426.51,1700.03,1918.48,600.15,619.54,51.61,0000 0000 0000 0000 000000
2016-04-02 01:56:12,0.14,8.32,0.00,13.41,17.81,22.10,15.25,51.70,1021.99,2069.02,1425.66,1699.30,1917.75,600.03,619.21,51.66,0000 0000 0000 0000 000000
2016-04-02 02:01:13,0.07,8.33,0.00,13.42,17.85,22.16,15.24,51.75,1021.99,2069.00,1424.97,1698.79,1916.98,599.98,619.26,51.71,0000 0000 0000 0000 000000
2016-04-02 02:06:14,0.14,8.34,0.00,13.42,17.88,22.14,15.25,51.73,1022.00,2069.00,1424.13,1698.02,1916.15,599.95,619.15,51.76,0000 0000 0000 0000 000000
2016-04-02 02:11:16,0.15,8.34,0.00,13.44,17.93,22.25,15.25,51.67,1022.00,2068.97,1423.27,1697.29,1915.39,600.25,619.48,51.81,0000 0000 0000 0000 000000
2016-04-02 02:16:17,0.09,8.35,0.00,13.50,17.96,22.32,15.26,51.76,1021.99,2068.94,1422.57,1696.80,1914.72,599.87,618.77,51.86,0000 0000 0000 0000 000000
2016-04-02 02:21:18,0.06,8.36,0.00,13.51,18.00,22.32,15.22,51.76,1021.99,2068.65,1421.70,1696.04,1913.92,599.96,619.03,51.91,0000 0000 0000 0000 000000
2016-04-02 02:26:20,0.08,8.36,0.00,13.50,18.04,22.36,15.25,51.73,1021.99,2068.11,1420.83,1695.29,1913.08,600.32,619.38,51.96,0000 0000 0000 0000 000000
2016-04-02 02:31:21,0.11,8.36,0.00,13.54,18.08,22.37,15.19,51.80,1022.00,2068.01,1419.98,1694.71,1912.32,599.82,618.90,52.01,0000 0000 0000 0000 000000
2016-04-02 02:36:22,0.12,8.37,0.00,13.61,18.12,22.40,15.24,51.84,1021.99,2068.00,1419.10,1694.00,1911.55,600.05,618.92,52.06,0000 0000 0000 0000 000000
2016-04-02 02:41:24,0.15,8.38,0.00,13.61,18.16,22.42,15.20,51.66,1021.99,2068.00,1418.20,1693.19,1910.73,599.99,618.85,52.11,0000 0000 0000 0000 000000
2016-04-02 02:46:25,0.13,8.38,0.00,13.62,18.20,22.43,15.24,51.88,1021.99,2067.99,1417.32,1692.59,1909.94,600.00,618.81,52.16,0000 0000 0000 0000 000000
2016-04-02 02:51:26,0.10,8.39,0.00,13.66,18.23,22.47,15.29,51.91,1021.99,2067.96,1416.61,1691.99,1909.08,600.10,618.80,52.21,0000 0000 0000 0000 000000
2016-04-02 02:56:27,0.09,8.40,0.00,13.71,18.27,22.56,15.26,51.88,1021.99,2067.68,1415.79,1691.22,1908.34,600.02,618.60,52.26,0000 0000 0000 0000 000000
2016-04-02 03:01:28,0.05,8.40,0.00,13.70,18.30,22.54,15.30,51.81,1021.99,2067.27,1415.01,1690.68,1907.66,599.93,618.71,52.32,0000 0000 0000 0000 000000
2016-04-02 03:06:29,0.09,8.40,0.00,13.70,18.33,22.63,15.23,51.84,1022.00,2067.05,1414.20,1690.01,1906.93,599.76,618.39,52.37,0000 0000 0000 0000 000000
2016-04-02 03:11:30,0.16,8.41,0.00,13.77,18.36,22.67,15.22,51.62,1021.99,2067.01,1413.30,1689.30,1906.09,600.08,618.51,52.42,0000 0000 0000 0000 000000
2016-04-02 03:16:32,0.11,8.42,0.00,13.79,18.39,22.66,15.26,51.71,1022.00,2067.00,1412.58,1688.74,1905.27,600.07,618.69,52.47,0000 0000 0000 0000 000000
2016-04-02 03:21:33,0.10,8.42,0.00,13.76,18.42,22.69,15.26,51.63,1022.00,2067.00,1411.86,1688.02,1904.69,600.25,618.73,52.52,0000 0000 0000 0000 000000
2016-04-02 03:26:34,0.12,8.43,0.00,13.80,18.44,22.65,15.18,51.71,1021.99,2066.99,1411.05,1687.44,1904.00,599.88,618.30,52.57,0000 0000 0000 0000 000000
2016-04-02 03:31:35,0.11,8.43,0.00,13.89,18.47,22.70,15.22,51.71,1021.99,2066.96,1410.24,1686.88,1903.19,599.80,617.99,52.62,0000 0000 0000 0000 000000
2016-04-02 03:36:37,0.13,8.44,0.00,13.91,18.50,22.68,15.17,51.58,1021.99,2066.92,1409.57,1686.09,1902.48,599.99,618.29,52.67,0000 0000 0000 0000 000000
2016-04-02 03:41:38,0.08,8.44,0.00,13.89,18.53,22.76,15.18,51.81,1021.99,2066.63,1408.68,1685.43,1901.72,599.43,617.57,52.72,0000 0000 0000 0000 000000
2016-04-02 03:46:39,0.02,8.45,0.00,13.96,18.56,22.75,15.19,51.63,1021.99,2066.15,1407.92,1684.91,1900.98,600.15,618.22,52.77,0000 0000 0000 0000 000000
2016-04-02 03:51:41,0.14,8.46,0.00,14.03,18.59,22.80,15.20,51.69,1021.99,2066.03,1407.07,1684.11,1900.14,600.06,617.91,52.82,0000 0000 0000 0000 000000
2016-04-02 03:56:42,0.15,8.46,0.00,14.07,18.62,22.87,15.24,51.68,1021.99,2066.02,1406.24,1683.54,1899.39,599.85,617.75,52.87,0000 0000 0000 0000 000000
2016-04-02 04:01:43,0.06,8.46,0.00,14.09,18.66,22.84,15.20,51.75,1021.99,2066.00,1405.80,1682.96,1898.76,600.19,617.77,52.92,0000 0000 0000 0000 000000
2016-04-02 04:06:44,0.14,8.47,0.00,14.16,18.70,22.91,15.17,51.70,1021.99,2065.99,1404.92,1682.11,1897.96,599.71,617.35,52.97,0000 0000 0000 0000 000000
2016-04-02 04:11:46,0.14,8.48,0.00,14.21,18.74,22.97,15.23,51.79,1021.99,2065.98,1404.06,1681.54,1897.10,600.19,617.68,53.02,0000 0000 0000 0000 000000
2016-04-02 04:16:47,0.11,8.48,0.00,14.21,18.78,23.03,15.19,51.92,1021.97,2065.96,1403.31,1680.96,1896.46,600.03,617.57,53.07,0000 0000 0000 0000 000000
2016-04-02 04:21:48,0.05,8.49,0.00,14.19,18.83,23.02,15.23,51.90,1021.96,2065.65,1402.77,1680.18,1895.76,600.02,617.62,53.12,0000 0000 0000 0000 000000
2016-04-02 04:26:50,0.04,8.49,0.00,14.24,18.89,23.04,15.26,51.88,1021.91,2065.10,1402.00,1679.68,1894.98,600.56,617.98,53.18,0000 0000 0000 0000 000000
2016-04-02 04:31:51,0.12,8.50,0.00,14.30,18.94,23.09,15.21,51.88,1021.94,2065.00,1401.13,1678.95,1894.11,599.86,617.20,53.23,0000 0000 0000 0000 000000
2016-04-02 04:36:52,0.15,8.50,0.00,14.30,19.01,23.12,15.17,51.92,1021.87,2065.00,1400.50,1678.13,1893.37,600.32,617.42,53.28,0000 0000 0000 0000 000000
2016-04-02 04:41:54,0.14,8.51,0.00,14.30,19.06,23.09,15.23,51.97,1021.82,2064.98,1399.66,1677.41,1892.49,600.04,617.32,53.33,0000 0000 0000 0000 000000
2016-04-02 04:46:55,0.09,8.52,0.00,14.37,19.12,23.05,15.16,52.03,1021.68,2064.70,1398.74,1676.70,1891.63,599.88,616.87,53.38,0000 0000 0000 0000 000000
2016-04-02 04:51:57,0.02,8.52,0.00,14.43,19.18,23.11,15.18,51.98,1021.63,2064.22,1397.92,1676.00,1890.80,599.96,616.84,53.43,0000 0000 0000 0000 000000
2016-04-02 04:56:58,0.14,8.53,0.00,14.44,19.24,23.15,15.14,51.97,1021.66,2064.01,1397.12,1675.17,1890.01,599.83,616.73,53.48,0000 0000 0000 0000 000000
2016-04-02 05:01:59,0.14,8.53,0.00,14.44,19.30,23.16,15.16,52.16,1021.60,2063.99,1396.60,1674.57,1889.16,599.98,616.70,53.53,0000 0000 0000 0000 000000
2016-04-02 05:07:01,0.13,8.54,0.00,14.48,19.36,23.20,15.16,52.17,1021.54,2063.98,1395.57,1673.87,1888.22,599.73,616.21,53.58,0000 0000 0000 0000 000000
2016-04-02 05:12:02,0.09,8.54,0.00,14.55,19.40,23.21,15.18,51.98,1021.52,2063.65,1394.56,1673.05,1887.43,599.96,616.40,53.63,0000 0000 0000 0000 000000
2016-04-02 05:17:03,0.10,8.55,0.00,14.59,19.45,23.26,15.19,52.07,1021.50,2063.08,1393.60,1672.23,1886.44,600.08,616.47,53.68,0000 0000 0000 0000 000000
2016-04-02 05:22:04,0.12,8.55,0.00,14.57,19.49,23.33,15.12,52.05,1021.51,2063.01,1392.81,1671.54,1885.66,599.79,616.33,53.73,0000 0000 0000 0000 000000
2016-04-02 05:27:06,0.16,8.56,0.00,14.57,19.54,23.37,15.23,51.98,1021.53,2063.00,1391.76,1670.77,1884.67,600.16,616.53,53.78,0000 0000 0000 0000 000000
2016-04-02 05:32:07,0.12,8.57,0.00,14.65,19.58,23.39,15.14,52.02,1021.53,2062.99,1390.83,1670.01,1883.82,599.89,616.36,53.83,0000 0000 0000 0000 000000
2016-04-02 05:37:08,0.15,8.58,0.00,14.71,19.62,23.42,15.21,52.00,1021.53,2062.95,1389.87,1669.17,1882.93,600.01,616.23,53.88,0000 0000 0000 0000 000000
2016-04-02 05:42:10,0.07,8.58,0.00,14.69,19.66,23.42,15.15,52.05,1021.55,2062.53,1389.01,1668.51,1882.07,599.92,616.12,53.93,0000 0000 0000 0000 000000
2016-04-02 05:47:11,0.08,8.59,0.00,14.74,19.70,23.43,15.19,51.98,1021.51,2062.08,1388.12,1667.86,1881.19,599.99,616.15,53.98,0000 0000 0000 0000 000000
2016-04-02 05:52:12,0.16,8.59,0.00,14.80,19.74,23.46,15.19,51.99,1021.50,2062.04,1387.15,1667.04,1880.30,600.03,615.92,54.03,0000 0000 0000 0000 000000
2016-04-02 05:57:13,0.14,8.60,0.00,14.84,19.78,23.48,15.20,51.93,1021.50,2062.00,1386.52,1666.33,1879.63,600.05,615.86,54.08,0000 0000 0000 0000 000000
2016-04-02 06:02:15,0.18,8.61,0.00,14.83,19.82,23.64,15.12,52.00,1021.50,2061.99,1385.24,1665.56,1878.62,599.66,615.63,54.14,0000 0000 0000 0000 000000
2016-04-02 06:07:16,0.09,8.61,0.00,14.85,19.85,23.65,15.18,51.91,1021.50,2061.97,1384.51,1664.95,1877.87,600.24,616.13,54.19,0000 0000 0000 0000 000000
2016-04-02 06:12:18,0.08,8.62,0.00,14.88,19.88,23.56,15.21,51.83,1021.50,2061.56,1383.58,1664.13,1877.02,600.03,615.93,54.24,0000 0000 0000 0000 000000
2016-04-02 06:17:19,0.14,8.62,0.00,14.96,19.91,23.62,15.11,51.96,1021.50,2061.20,1382.37,1663.34,1876.06,599.88,615.47,54.29,0000 0000 0000 0000 000000
2016-04-02 06:22:20,0.13,8.63,0.00,15.00,19.93,23.71,15.15,51.94,1021.50,2061.05,1381.23,1662.74,1875.10,600.08,615.61,54.34,0000 0000 0000 0000 000000
2016-04-02 06:27:22,0.14,8.64,0.00,14.98,19.96,23.68,15.08,51.88,1021.50,2061.01,1380.28,1662.01,1874.22,599.86,615.51,54.39,0000 0000 0000 0000 000000
2016-04-02 06:32:23,0.16,8.65,0.00,15.00,19.98,23.72,15.13,51.68,1021.50,2061.00,1379.47,1661.21,1873.42,599.96,615.56,54.44,0000 0000 0000 0000 000000
2016-04-02 06:37:25,0.16,8.65,0.00,15.06,20.00,23.77,15.14,51.89,1021.50,2061.00,1378.48,1660.47,1872.54,600.12,615.51,54.49,0000 0000 0000 0000 000000
2016-04-02 06:42:26,0.06,8.66,0.00,15.14,20.03,23.86,15.21,51.88,1021.50,2060.99,1377.81,1659.93,1871.89,600.07,615.25,54.54,0000 0000 0000 0000 000000
2016-04-02 06:47:28,0.14,8.67,0.00,15.13,20.05,23.82,15.14,51.84,1021.48,2060.98,1377.03,1659.13,1871.06,599.80,615.10,54.59,0000 0000 0000 0000 000000
2016-04-02 06:52:29,0.13,8.67,0.00,15.14,20.08,23.79,15.22,51.88,1021.50,2060.97,1376.35,1658.62,1870.34,600.46,615.69,54.64,0000 0000 0000 0000 000000
2016-04-02 06:57:30,0.13,8.68,0.00,15.15,20.11,23.87,15.17,51.96,1021.49,2060.94,1375.48,1657.93,1869.57,599.98,615.18,54.69,0000 0000 0000 0000 000000
2016-04-02 07:02:32,0.11,8.69,0.00,15.24,20.14,23.85,15.08,51.79,1021.49,2060.66,1374.40,1657.09,1868.74,599.70,614.75,54.74,0000 0000 0000 0000 000000
2016-04-02 07:07:33,0.06,8.69,0.00,15.29,20.17,23.94,15.08,51.83,1021.50,2060.17,1373.65,1656.53,1867.97,599.81,614.80,54.79,0000 0000 0000 0000 000000
2016-04-02 07:12:34,0.09,8.69,0.00,15.29,20.19,23.96,15.14,51.60,1021.50,2060.04,1372.92,1655.93,1867.22,600.09,615.05,54.84,0000 0000 0000 0000 000000
2016-04-02 07:17:36,0.15,8.70,0.00,15.29,20.22,23.96,15.16,51.73,1021.50,2060.01,1372.04,1655.10,1866.37,600.36,615.19,54.89,0000 0000 0000 0000 000000
2016-04-02 07:22:37,0.13,8.71,0.00,15.30,20.24,23.95,15.10,51.77,1021.49,2060.00,1371.39,1654.58,1865.69,599.92,614.74,54.95,0000 0000 0000 0000 000000
2016-04-02 07:27:38,0.10,8.71,0.00,15.39,20.27,24.09,15.10,51.72,1021.49,2060.00,1370.58,1653.96,1864.95,599.85,614.58,55.00,0000 0000 0000 0000 000000
2016-04-02 07:32:39,0.14,8.72,0.00,15.44,20.29,24.08,15.09,51.56,1021.47,2059.98,1369.77,1653.14,1864.10,600.02,614.58,55.05,0000 0000 0000 0000 000000
2016-04-02 07:37:41,0.13,8.73,0.00,15.42,20.32,24.13,15.09,51.71,1021.47,2059.95,1368.89,1652.60,1863.39,599.68,614.33,55.10,0000 0000 0000 0000 000000
2016-04-02 07:42:42,0.12,8.73,0.00,15.42,20.33,24.17,15.13,51.72,1021.45,2059.97,1367.95,1651.97,1862.58,599.84,614.50,55.15,0000 0000 0000 0000 000000
2016-04-02 07:47:44,0.14,8.74,0.00,15.43,20.34,24.22,15.16,51.67,1021.42,2059.81,1366.91,1651.15,1861.76,600.21,614.81,55.20,0000 0000 0000 0000 000000
2016-04-02 07:52:45,0.07,8.75,0.00,15.49,20.37,24.18,15.17,51.60,1021.48,2059.44,1366.03,1650.54,1861.00,600.16,614.61,55.25,0000 0000 0000 0000 000000
2016-04-02 07:57:46,0.11,8.75,0.00,15.56,20.38,24.23,15.12,51.58,1021.50,2059.20,1365.26,1649.91,1860.16,600.00,614.41,55.30,0000 0000 0000 0000 000000
2016-04-02 08:02:48,0.16,8.76,0.00,15.54,20.39,24.23,15.17,51.58,1021.50,2059.05,1364.16,1649.06,1859.24,600.27,614.69,55.35,0000 0000 0000 0000 000000
2016-04-02 08:07:49,0.14,8.77,0.00,15.56,20.41,24.19,15.08,51.43,1021.50,2059.01,1363.15,1648.31,1858.48,600.00,614.36,55.40,0000 0000 0000 0000 000000
2016-04-02 08:12:50,0.19,8.77,0.00,15.60,20.43,24.23,15.14,51.56,1021.49,2059.00,1361.90,1647.60,1857.42,600.23,614.48,55.45,0000 0000 0000 0000 000000
2016-04-02 08:17:52,0.11,8.78,0.00,15.68,20.44,24.29,15.18,51.54,1021.50,2059.00,1360.99,1646.95,1856.65,600.13,614.33,55.50,0000 0000 0000 0000 000000
2016-04-02 08:22:53,0.15,8.79,0.00,15.74,20.47,24.43,15.07,51.46,1021.50,2059.00,1360.11,1646.12,1855.94,599.94,613.88,55.55,0000 0000 0000 0000 000000
2016-04-02 08:27:54,0.16,8.80,0.00,15.74,20.49,24.57,15.10,51.46,1021.50,2059.00,1359.33,1645.51,1855.11,599.92,613.88,55.60,0000 0000 0000 0000 000000
2016-04-02 08:32:55,0.09,8.80,0.00,15.75,20.51,24.69,15.04,51.43,1021.50,2058.99,1358.64,1644.97,1854.57,600.00,613.97,55.65,0000 0000 0000 0000 000000
2016-04-02 08:37:57,0.17,8.81,0.00,15.78,20.54,24.75,15.04,51.44,1021.50,2058.98,1357.61,1644.15,1853.74,599.87,613.77,55.70,0000 0000 0000 0000 000000
2016-04-02 08:42:58,0.13,8.82,0.00,15.86,20.57,24.77,15.10,51.50,1021.50,2058.96,1356.74,1643.48,1852.95,600.12,613.82,55.75,0000 0000 0000 0000 000000
2016-04-02 08:47:59,0.07,8.82,0.00,15.96,20.60,24.74,15.13,51.48,1021.50,2058.90,1355.93,1642.91,1852.11,600.20,613.63,55.80,0000 0000 0000 0000 000000
2016-04-02 08:53:00,0.12,8.83,0.00,15.96,20.63,24.79,15.00,51.41,1021.50,2058.56,1354.95,1642.08,1851.31,599.73,613.19,55.85,0000 0000 0000 0000 000000
2016-04-02 08:58:02,0.11,8.83,0.00,15.94,20.66,24.94,15.13,51.48,1021.51,2058.10,1354.04,1641.35,1850.39,600.09,613.60,55.91,0000 0000 0000 0000 000000
2016-04-02 09:03:03,0.14,8.84,0.00,15.93,20.70,25.02,15.15,51.46,1021.52,2058.01,1353.42,1640.62,1849.60,600.15,613.78,55.96,0000 0000 0000 0000 000000
2016-04-02 09:08:04,0.19,8.85,0.00,15.93,20.73,25.07,15.14,51.45,1021.53,2058.00,1352.20,1639.65,1848.57,599.96,613.54,56.01,0000 0000 0000 0000 000000
2016-04-02 09:13:06,0.25,8.86,0.00,16.00,20.77,25.12,15.13,51.49,1021.51,2057.99,1350.64,1638.57,1847.29,600.10,613.39,56.06,0000 0000 0000 0000 000000
2016-04-02 09:18:07,0.25,8.87,0.00,15.99,20.80,25.10,15.06,51.50,1021.50,2057.97,1348.73,1637.56,1846.07,600.10,613.48,56.11,0000 0000 0000 0000 000000
2016-04-02 09:23:08,0.05,8.88,0.00,15.94,20.83,25.12,15.11,51.40,1021.52,2057.96,1348.23,1637.00,1845.19,599.88,613.37,56.16,0000 0000 0000 0000 000000
2016-04-02 09:28:09,0.11,8.88,0.00,15.91,20.85,25.06,15.16,51.42,1021.52,2057.52,1347.35,1636.11,1844.39,599.97,613.53,56.21,0000 0000 0000 0000 000000
2016-04-02 09:33:10,0.24,8.89,0.00,15.87,20.87,25.01,15.14,51.33,1021.50,2057.24,1345.51,1635.12,1843.26,599.92,613.54,56.26,0000 0000 0000 0000 000000
2016-04-02 09:38:12,0.07,8.90,0.00,15.90,20.89,24.94,15.02,51.32,1021.51,2057.10,1344.98,1634.58,1842.51,599.90,613.53,56.31,0000 0000 0000 0000 000000
2016-04-02 09:43:13,0.14,8.90,0.00,15.97,20.90,24.94,15.10,51.31,1021.50,2057.02,1344.35,1633.74,1841.60,600.07,613.48,56.36,0000 0000 0000 0000 000000
2016-04-02 09:48:14,0.15,8.92,0.00,15.94,20.92,24.92,15.07,51.23,1021.51,2057.01,1343.15,1632.95,1840.70,599.77,613.32,56.41,0000 0000 0000 0000 000000
2016-04-02 09:53:16,0.18,8.92,0.00,15.90,20.92,24.90,15.09,51.25,1021.53,2057.00,1342.19,1632.03,1839.71,600.00,613.63,56.46,0000 0000 0000 0000 000000
2016-04-02 09:58:17,0.27,8.93,0.00,15.87,20.92,24.99,15.08,51.23,1021.52,2057.00,1340.53,1630.89,1838.43,600.06,613.83,56.51,0000 0000 0000 0000 000000
2016-04-02 10:03:18,0.34,8.95,0.00,15.85,20.92,24.96,15.14,51.37,1021.52,2057.00,1338.40,1629.53,1836.79,600.21,613.95,56.56,0000 0000 0000 0000 000000
2016-04-02 10:08:20,0.26,8.97,0.00,15.89,20.92,24.94,15.00,51.29,1021.50,2057.00,1336.47,1628.27,1835.35,599.67,613.36,56.61,0000 0000 0000 0000 000000
2016-04-02 10:13:21,0.25,8.98,0.00,15.89,20.91,24.93,15.07,51.23,1021.50,2056.99,1334.68,1627.15,1834.01,599.75,613.30,56.66,0000 0000 0000 0000 000000
2016-04-02 10:18:22,0.24,8.99,0.00,15.86,20.89,24.86,15.17,51.28,1021.50,2056.99,1332.98,1626.07,1832.81,600.21,614.07,56.71,0000 0000 0000 0000 000000
2016-04-02 10:23:24,0.23,9.00,0.00,15.82,20.89,24.87,15.16,51.26,1021.50,2056.99,1331.49,1625.10,1831.62,599.88,613.62,56.77,0000 0000 0000 0000 000000
2016-04-02 10:28:25,0.19,9.02,0.00,15.78,20.87,24.90,15.14,51.17,1021.50,2056.99,1330.22,1624.15,1830.55,599.83,613.62,56.82,0000 0000 0000 0000 000000
2016-04-02 10:33:26,0.17,9.02,0.00,15.78,20.87,24.94,15.10,51.26,1021.48,2056.99,1329.20,1623.38,1829.71,600.15,613.94,56.87,0000 0000 0000 0000 000000
2016-04-02 10:38:27,0.20,9.03,0.00,15.80,20.85,24.93,15.09,51.22,1021.42,2056.99,1327.89,1622.55,1828.67,599.81,613.53,56.92,0000 0000 0000 0000 000000
2016-04-02 10:43:28,0.23,9.04,0.00,15.74,20.84,24.86,15.14,51.06,1021.40,2056.99,1326.41,1621.60,1827.59,599.90,613.79,56.97,0000 0000 0000 0000 000000
2016-04-02 10:48:30,0.25,9.05,0.00,15.68,20.82,24.87,15.19,51.23,1021.41,2056.99,1324.69,1620.61,1826.43,600.04,614.13,57.02,0000 0000 0000 0000 000000
2016-04-02 10:53:31,0.06,9.06,0.00,15.64,20.79,24.81,15.16,51.09,1021.26,2056.99,1324.23,1619.95,1825.65,600.09,614.04,57.07,0000 0000 0000 0000 000000
2016-04-02 10:58:32,0.20,9.07,0.00,15.63,20.77,24.78,15.16,51.06,1021.08,2056.99,1323.11,1619.12,1824.75,600.09,613.88,57.12,0000 0000 0000 0000 000000
2016-04-02 11:03:34,0.22,9.09,0.00,15.64,20.75,24.78,15.21,51.09,1021.09,2057.02,1321.40,1618.33,1823.80,600.03,613.92,57.17,0000 0000 0000 0000 000000
2016-04-02 11:08:35,0.11,9.09,0.00,15.59,20.72,24.68,15.07,51.03,1021.07,2057.03,1320.58,1617.78,1823.03,599.87,613.84,57.22,0000 0000 0000 0000 000000
2016-04-02 11:13:37,0.14,9.10,0.00,15.55,20.69,24.64,15.17,51.18,1021.04,2057.09,1319.87,1617.03,1822.18,600.23,614.22,57.27,0000 0000 0000 0000 000000
2016-04-02 11:18:38,0.29,9.11,0.00,15.51,20.66,24.71,15.17,51.01,1021.02,2057.32,1318.33,1616.23,1821.25,600.37,614.54,57.32,0000 0000 0000 0000 000000
2016-04-02 11:23:39,0.22,9.12,0.00,15.49,20.63,24.68,15.10,51.00,1021.01,2057.52,1316.84,1615.27,1820.18,599.88,614.07,57.37,0000 0000 0000 0000 000000
2016-04-02 11:28:40,0.28,9.14,0.00,15.49,20.61,24.67,15.07,51.03,1021.01,2057.85,1315.51,1614.40,1819.21,599.89,614.08,57.42,0000 0000 0000 0000 000000
2016-04-02 11:33:41,0.25,9.15,0.00,15.45,20.58,24.59,15.08,50.97,1021.01,2057.95,1313.92,1613.48,1817.96,599.83,614.09,57.47,0000 0000 0000 0000 000000
2016-04-02 11:38:43,0.34,9.17,0.00,15.40,20.55,24.59,15.17,51.04,1021.01,2057.98,1311.71,1612.09,1816.41,600.02,614.35,57.52,0000 0000 0000 0000 000000
2016-04-02 11:43:44,0.23,9.18,0.00,15.37,20.52,24.55,15.20,51.08,1021.00,2057.99,1310.34,1610.82,1815.06,600.08,614.54,57.57,0000 0000 0000 0000 000000
2016-04-02 11:48:45,0.20,9.19,0.00,15.36,20.49,24.51,15.14,50.94,1020.94,2057.99,1308.78,1609.87,1813.89,600.00,614.33,57.63,0000 0000 0000 0000 000000
2016-04-02 11:53:46,0.16,9.20,0.00,15.32,20.46,24.46,15.10,50.99,1020.74,2058.01,1307.83,1609.04,1812.92,599.75,614.14,57.68,0000 0000 0000 0000 000000
2016-04-02 11:58:48,0.22,9.21,0.00,15.27,20.43,24.45,15.19,51.02,1020.56,2058.03,1306.56,1608.17,1811.97,600.14,614.59,57.73,0000 0000 0000 0000 000000
2016-04-02 12:03:49,0.20,9.22,0.00,15.24,20.39,24.43,15.05,51.02,1020.54,2058.13,1305.33,1607.40,1811.02,599.82,614.28,57.78,0000 0000 0000 0000 000000
2016-04-02 12:08:50,0.22,9.23,0.00,15.22,20.36,24.36,15.02,50.98,1020.53,2058.48,1304.23,1606.65,1810.14,599.66,614.12,57.83,0000 0000 0000 0000 000000
2016-04-02 12:13:51,0.23,9.24,0.00,15.21,20.33,24.36,15.10,51.13,1020.53,2058.88,1302.90,1605.89,1809.21,600.12,614.47,57.88,0000 0000 0000 0000 000000
2016-04-02 12:18:53,0.22,9.25,0.00,15.17,20.30,24.32,15.03,51.13,1020.53,2058.97,1301.56,1605.03,1808.29,599.85,614.37,57.93,0000 0000 0000 0000 000000
2016-04-02 12:23:54,0.21,9.27,0.00,15.09,20.26,24.24,15.00,51.04,1020.52,2058.99,1300.13,1604.15,1807.23,599.69,614.31,57.98,0000 0000 0000 0000 000000
2016-04-02 12:28:55,0.17,9.27,0.00,15.07,20.23,24.27,15.18,51.17,1020.52,2058.99,1299.04,1603.51,1806.47,600.02,614.91,58.03,0000 0000 0000 0000 000000
2016-04-02 12:33:56,0.14,9.28,0.00,15.07,20.21,24.23,15.18,51.23,1020.52,2059.01,1298.00,1602.80,1805.63,600.04,614.97,58.08,0000 0000 0000 0000 000000
2016-04-02 12:38:58,0.31,9.29,0.00,15.04,20.19,24.18,15.14,51.26,1020.52,2059.04,1296.53,1601.57,1804.34,600.20,615.00,58.13,0000 0000 0000 0000 000000
2016-04-02 12:43:59,0.22,9.31,0.00,14.98,20.17,24.17,15.14,51.23,1020.51,2059.15,1295.07,1600.64,1803.15,600.25,615.21,58.18,0000 0000 0000 0000 000000
2016-04-02 12:49:01,0.28,9.32,0.00,14.95,20.14,24.14,15.14,51.15,1020.49,2059.54,1293.79,1599.64,1802.05,599.86,614.78,58.23,0000 0000 0000 0000 000000
2016-04-02 12:54:02,0.17,9.33,0.00,14.95,20.12,24.12,15.07,51.14,1020.47,2059.76,1292.70,1598.88,1801.01,599.45,614.48,58.28,0000 0000 0000 0000 000000